SAS2762 EPWA-EKCH

Flight info

Callsign SAS2762
Flight time 1h 27m
Altitude 36000
Route OLILA L621 LUSID DCT ROE M743 TIDVU
Aircraft A320/M-SDE3FGHIRWY/LB1

Departure

Time 2026-05-04 17:56
Airport Warsaw Chopin Airport (EPWA)

Arrival

Time 2026-05-04 19:24
Airport Copenhagen Kastrup Airport (EKCH)
Time Latitude Longitude Altitude Speed Heading
2026-05-04 17:20 52.17274 20.96900 350 ft 0 kts 60°
2026-05-04 17:45 52.17271 20.96890 358 ft 4 kts 60°
2026-05-04 17:45 52.17258 20.96852 360 ft 4 kts 60°
2026-05-04 17:46 52.17244 20.96814 360 ft 4 kts 61°
2026-05-04 17:46 52.17235 20.96786 359 ft 0 kts 62°
2026-05-04 17:51 52.17237 20.96793 360 ft 1 kts 62°
2026-05-04 17:51 52.17230 20.96812 358 ft 5 kts 168°
2026-05-04 17:51 52.17152 20.96839 352 ft 17 kts 144°
2026-05-04 17:52 52.17059 20.96925 352 ft 16 kts 151°
2026-05-04 17:52 52.16952 20.97018 352 ft 19 kts 152°
2026-05-04 17:52 52.16846 20.97109 357 ft 17 kts 152°
2026-05-04 17:52 52.16734 20.97205 353 ft 15 kts 153°
2026-05-04 17:53 52.16641 20.97287 349 ft 15 kts 150°
2026-05-04 17:53 52.16570 20.97376 349 ft 13 kts 119°
2026-05-04 17:53 52.16530 20.97519 355 ft 15 kts 113°
2026-05-04 17:53 52.16487 20.97684 356 ft 17 kts 114°
2026-05-04 17:54 52.16448 20.97800 353 ft 9 kts 141°
2026-05-04 17:54 52.16385 20.97784 354 ft 11 kts 204°
2026-05-04 17:54 52.16313 20.97715 352 ft 14 kts 231°
2026-05-04 17:54 52.16321 20.97617 356 ft 0 kts 291°
2026-05-04 17:55 52.16377 20.97410 351 ft 55 kts 294°
2026-05-04 17:55 52.16630 20.96503 348 ft 117 kts 295°
2026-05-04 17:56 52.17038 20.95053 361 ft 163 kts 295°
2026-05-04 17:56 52.17492 20.93230 736 ft 172 kts 290°
2026-05-04 17:56 52.17978 20.91475 1416 ft 171 kts 292°
2026-05-04 17:56 52.18798 20.89975 1875 ft 195 kts 328°
2026-05-04 17:57 52.20113 20.89018 2152 ft 220 kts 333°
2026-05-04 17:57 52.21583 20.87929 2493 ft 243 kts 327°
2026-05-04 17:57 52.22909 20.86089 3037 ft 257 kts 311°
2026-05-04 17:57 52.24174 20.83986 3905 ft 262 kts 314°
2026-05-04 17:58 52.25663 20.82211 4832 ft 267 kts 323°
2026-05-04 17:58 52.27215 20.80519 5749 ft 270 kts 323°
2026-05-04 17:58 52.28785 20.78815 6623 ft 273 kts 323°
2026-05-04 17:58 52.30373 20.77091 7454 ft 276 kts 323°
2026-05-04 17:59 52.31958 20.75363 8276 ft 279 kts 323°
2026-05-04 17:59 52.33580 20.73587 9117 ft 282 kts 323°
2026-05-04 17:59 52.36919 20.69928 10335 ft 304 kts 322°
2026-05-04 18:00 52.38736 20.67925 10552 ft 325 kts 322°
2026-05-04 18:00 52.40642 20.65826 11097 ft 334 kts 322°
2026-05-04 18:00 52.42580 20.63695 11768 ft 338 kts 322°
2026-05-04 18:00 52.44546 20.61537 12464 ft 342 kts 322°
2026-05-04 18:01 52.46531 20.59357 13165 ft 346 kts 321°
2026-05-04 18:01 52.48512 20.57179 13819 ft 349 kts 321°
2026-05-04 18:01 52.50540 20.54946 14432 ft 352 kts 321°
2026-05-04 18:02 52.54642 20.50415 15651 ft 358 kts 322°
2026-05-04 18:02 52.56719 20.48114 16246 ft 362 kts 322°
2026-05-04 18:02 52.58813 20.45793 16843 ft 365 kts 322°
2026-05-04 18:02 52.60927 20.43443 17441 ft 368 kts 322°
2026-05-04 18:03 52.63055 20.41072 18065 ft 371 kts 322°
2026-05-04 18:03 52.65174 20.38706 18614 ft 374 kts 322°
2026-05-04 18:03 52.67338 20.36291 19177 ft 377 kts 322°
2026-05-04 18:03 52.69508 20.33842 19749 ft 379 kts 319°
2026-05-04 18:04 52.71471 20.30967 20319 ft 377 kts 309°
2026-05-04 18:04 52.73230 20.27752 20880 ft 379 kts 308°
2026-05-04 18:04 52.76766 20.21234 21984 ft 383 kts 308°
2026-05-04 18:05 52.77945 20.19054 22344 ft 385 kts 308°
2026-05-04 18:05 52.79734 20.15741 22873 ft 388 kts 308°
2026-05-04 18:05 52.81532 20.12402 23407 ft 390 kts 307°
2026-05-04 18:05 52.83875 20.07875 23994 ft 392 kts 306°
2026-05-04 18:06 52.87317 20.00821 24863 ft 395 kts 304°
2026-05-04 18:06 52.88434 19.98440 25141 ft 396 kts 304°
2026-05-04 18:06 52.90677 19.93577 25697 ft 398 kts 303°
2026-05-04 18:07 52.91788 19.91152 25973 ft 399 kts 303°
2026-05-04 18:07 52.93466 19.87474 26372 ft 401 kts 303°
2026-05-04 18:07 52.95145 19.83797 26764 ft 403 kts 303°
2026-05-04 18:07 52.97395 19.78874 27285 ft 405 kts 304°
2026-05-04 18:08 52.99102 19.75141 27681 ft 407 kts 304°
2026-05-04 18:08 53.00259 19.72613 27942 ft 408 kts 304°
2026-05-04 18:08 53.01978 19.68851 28325 ft 410 kts 304°
2026-05-04 18:08 53.03683 19.65119 28706 ft 412 kts 304°
2026-05-04 18:09 53.07172 19.57484 29395 ft 417 kts 304°
2026-05-04 18:09 53.10690 19.49765 30091 ft 421 kts 304°
2026-05-04 18:10 53.12456 19.45875 30400 ft 422 kts 304°
2026-05-04 18:10 53.14222 19.41981 30829 ft 420 kts 304°
2026-05-04 18:10 53.15970 19.38109 31312 ft 417 kts 303°
2026-05-04 18:10 53.17676 19.34321 31829 ft 413 kts 303°
2026-05-04 18:11 53.19401 19.30489 32354 ft 410 kts 303°
2026-05-04 18:11 53.21103 19.26700 32853 ft 407 kts 303°
2026-05-04 18:11 53.22794 19.22937 33371 ft 404 kts 302°
2026-05-04 18:11 53.24469 19.19200 33869 ft 401 kts 302°
2026-05-04 18:12 53.26136 19.15475 34288 ft 399 kts 302°
2026-05-04 18:12 53.27797 19.11763 34600 ft 399 kts 302°
2026-05-04 18:12 53.29458 19.08039 34879 ft 400 kts 302°
2026-05-04 18:12 53.31121 19.04305 35145 ft 401 kts 302°
2026-05-04 18:13 53.32785 19.00565 35405 ft 401 kts 303°
2026-05-04 18:13 53.34433 18.96860 35658 ft 402 kts 303°
2026-05-04 18:13 53.37776 18.89314 35940 ft 404 kts 303°
2026-05-04 18:14 53.39449 18.85526 35941 ft 404 kts 303°
2026-05-04 18:14 53.42795 18.77946 35941 ft 404 kts 302°
2026-05-04 18:15 53.49452 18.62811 35945 ft 404 kts 302°
2026-05-04 18:16 53.52781 18.55205 35950 ft 405 kts 302°
2026-05-04 18:16 53.56129 18.47520 35951 ft 408 kts 302°
2026-05-04 18:17 53.61160 18.35954 35950 ft 408 kts 302°
2026-05-04 18:18 53.66153 18.24430 35953 ft 408 kts 302°
2026-05-04 18:18 53.69489 18.16698 35958 ft 408 kts 302°
2026-05-04 18:19 53.74482 18.05067 35966 ft 408 kts 302°
2026-05-04 18:19 53.77780 17.97341 35977 ft 408 kts 301°
2026-05-04 18:20 53.81095 17.89542 35975 ft 408 kts 301°
2026-05-04 18:20 53.84410 17.81742 35979 ft 408 kts 301°
2026-05-04 18:21 53.87726 17.73924 35978 ft 408 kts 301°
2026-05-04 18:21 53.91032 17.66096 35981 ft 408 kts 301°
2026-05-04 18:22 53.94311 17.58304 35999 ft 408 kts 301°
2026-05-04 18:22 53.97607 17.50449 35992 ft 408 kts 301°
2026-05-04 18:23 54.00902 17.42591 36000 ft 407 kts 301°
2026-05-04 18:23 54.04180 17.34734 35993 ft 407 kts 301°
2026-05-04 18:24 54.07427 17.26914 35994 ft 407 kts 300°
2026-05-04 18:24 54.10694 17.19034 35991 ft 407 kts 300°
2026-05-04 18:25 54.13956 17.11142 36003 ft 407 kts 300°
2026-05-04 18:25 54.17218 17.03236 35999 ft 407 kts 300°
2026-05-04 18:26 54.20473 16.95316 35996 ft 407 kts 300°
2026-05-04 18:26 54.23693 16.87436 35993 ft 407 kts 300°
2026-05-04 18:27 54.26935 16.79486 35992 ft 407 kts 300°
2026-05-04 18:27 54.30169 16.71529 36004 ft 407 kts 300°
2026-05-04 18:28 54.33400 16.63558 36001 ft 407 kts 300°
2026-05-04 18:28 54.36625 16.55571 35995 ft 407 kts 300°
2026-05-04 18:29 54.39847 16.47572 36021 ft 407 kts 299°
2026-05-04 18:29 54.43043 16.39619 36001 ft 407 kts 299°
2026-05-04 18:30 54.47857 16.27575 35988 ft 407 kts 299°
2026-05-04 18:31 54.51058 16.19529 36005 ft 408 kts 299°
2026-05-04 18:31 54.54261 16.11467 35995 ft 408 kts 299°
2026-05-04 18:32 54.57438 16.03439 35987 ft 408 kts 299°
2026-05-04 18:32 54.60633 15.95341 35985 ft 408 kts 299°
2026-05-04 18:33 54.63825 15.87232 35976 ft 408 kts 299°
2026-05-04 18:33 54.67012 15.79109 35973 ft 408 kts 298°
2026-05-04 18:34 54.70169 15.71028 35975 ft 408 kts 298°
2026-05-04 18:34 54.73337 15.62871 35976 ft 408 kts 298°
2026-05-04 18:34 54.74920 15.58785 35852 ft 409 kts 298°
2026-05-04 18:35 54.76516 15.54660 35014 ft 414 kts 298°
2026-05-04 18:35 54.78120 15.50515 34311 ft 414 kts 298°
2026-05-04 18:35 54.79719 15.46389 33788 ft 410 kts 297°
2026-05-04 18:35 54.81295 15.42321 33283 ft 403 kts 297°
2026-05-04 18:36 54.82847 15.38311 32828 ft 397 kts 297°
2026-05-04 18:36 54.84371 15.34358 32377 ft 392 kts 297°
2026-05-04 18:36 54.85853 15.30503 31905 ft 387 kts 297°
2026-05-04 18:36 54.87333 15.26640 31462 ft 382 kts 297°
2026-05-04 18:37 54.88788 15.22831 31019 ft 376 kts 297°
2026-05-04 18:37 54.90226 15.19064 30579 ft 371 kts 297°
2026-05-04 18:37 54.91643 15.15355 30134 ft 366 kts 297°
2026-05-04 18:37 54.93040 15.11689 29673 ft 361 kts 296°
2026-05-04 18:38 54.94411 15.08081 29249 ft 355 kts 296°
2026-05-04 18:38 54.95762 15.04523 28844 ft 350 kts 296°
2026-05-04 18:38 54.97093 15.01015 28438 ft 345 kts 296°
2026-05-04 18:38 54.98405 14.97551 28045 ft 341 kts 296°
2026-05-04 18:39 54.99703 14.94121 27660 ft 337 kts 296°
2026-05-04 18:39 55.00986 14.90723 27281 ft 335 kts 296°
2026-05-04 18:39 55.02242 14.87394 26925 ft 332 kts 296°
2026-05-04 18:39 55.03506 14.84035 26560 ft 330 kts 296°
2026-05-04 18:40 55.04758 14.80700 26200 ft 327 kts 296°
2026-05-04 18:40 55.05998 14.77391 25822 ft 325 kts 296°
2026-05-04 18:40 55.07119 14.74006 25452 ft 319 kts 291°
2026-05-04 18:40 55.08124 14.70566 25087 ft 317 kts 291°
2026-05-04 18:41 55.09126 14.67154 24711 ft 315 kts 291°
2026-05-04 18:41 55.10124 14.63770 24348 ft 312 kts 291°
2026-05-04 18:41 55.11115 14.60411 23977 ft 310 kts 292°
2026-05-04 18:41 55.12085 14.57110 23606 ft 309 kts 291°
2026-05-04 18:42 55.13059 14.53777 23188 ft 307 kts 292°
2026-05-04 18:42 55.14026 14.50464 22790 ft 305 kts 292°
2026-05-04 18:42 55.14987 14.47173 22403 ft 303 kts 292°
2026-05-04 18:42 55.15943 14.43895 22016 ft 302 kts 292°
2026-05-04 18:43 55.16893 14.40629 21636 ft 301 kts 293°
2026-05-04 18:43 55.17839 14.37370 21230 ft 300 kts 293°
2026-05-04 18:43 55.18783 14.34119 20831 ft 299 kts 293°
2026-05-04 18:43 55.19722 14.30877 20425 ft 299 kts 293°
2026-05-04 18:44 55.20649 14.27678 20026 ft 298 kts 293°
2026-05-04 18:44 55.21281 14.25491 19753 ft 298 kts 293°
2026-05-04 18:44 55.22520 14.21193 19210 ft 298 kts 293°
2026-05-04 18:44 55.23452 14.17949 18800 ft 299 kts 293°
2026-05-04 18:45 55.24389 14.14693 18388 ft 299 kts 293°
2026-05-04 18:45 55.25327 14.11435 17936 ft 300 kts 293°
2026-05-04 18:45 55.26262 14.08178 17502 ft 299 kts 293°
2026-05-04 18:45 55.27197 14.04927 17079 ft 298 kts 293°
2026-05-04 18:46 55.28126 14.01685 16662 ft 297 kts 293°
2026-05-04 18:46 55.29050 13.98452 16252 ft 296 kts 293°
2026-05-04 18:46 55.29958 13.95266 15836 ft 296 kts 293°
2026-05-04 18:46 55.30879 13.92043 15418 ft 295 kts 293°
2026-05-04 18:47 55.31797 13.88826 15000 ft 295 kts 293°
2026-05-04 18:47 55.32712 13.85604 14628 ft 293 kts 293°
2026-05-04 18:47 55.33612 13.82449 14439 ft 286 kts 293°
2026-05-04 18:47 55.34499 13.79334 14097 ft 284 kts 293°
2026-05-04 18:48 55.35378 13.76225 13718 ft 284 kts 293°
2026-05-04 18:48 55.36253 13.73118 13305 ft 284 kts 293°
2026-05-04 18:48 55.37127 13.70017 12926 ft 282 kts 293°
2026-05-04 18:48 55.37998 13.66930 12546 ft 281 kts 293°
2026-05-04 18:49 55.38863 13.63857 12178 ft 280 kts 293°
2026-05-04 18:49 55.39709 13.60852 11944 ft 274 kts 293°
2026-05-04 18:49 55.40533 13.57928 11944 ft 260 kts 293°
2026-05-04 18:49 55.41341 13.55178 11946 ft 247 kts 300°
2026-05-04 18:50 55.42549 13.53112 11948 ft 242 kts 325°
2026-05-04 18:50 55.44159 13.52153 11531 ft 258 kts 351°
2026-05-04 18:50 55.45958 13.52763 11223 ft 270 kts 22°
2026-05-04 18:50 55.47381 13.54846 11148 ft 267 kts 52°
2026-05-04 18:51 55.48074 13.57813 10951 ft 264 kts 84°
2026-05-04 18:51 55.47866 13.60983 10613 ft 261 kts 116°
2026-05-04 18:51 55.47088 13.63854 10280 ft 260 kts 120°
2026-05-04 18:51 55.46280 13.66660 10017 ft 258 kts 120°
2026-05-04 18:52 55.45414 13.69402 9938 ft 255 kts 132°
2026-05-04 18:52 55.44108 13.71425 9944 ft 248 kts 158°
2026-05-04 18:52 55.42481 13.72290 9955 ft 253 kts 182°
2026-05-04 18:52 55.40684 13.71787 9950 ft 270 kts 208°
2026-05-04 18:53 55.39176 13.69868 9891 ft 269 kts 233°
2026-05-04 18:53 55.38339 13.66999 9810 ft 265 kts 258°
2026-05-04 18:53 55.38319 13.63787 9764 ft 266 kts 283°
2026-05-04 18:53 55.38931 13.60710 9702 ft 267 kts 289°
2026-05-04 18:54 55.39591 13.57654 9638 ft 267 kts 289°
2026-05-04 18:54 55.40251 13.54600 9579 ft 267 kts 289°
2026-05-04 18:54 55.40909 13.51547 9496 ft 267 kts 289°
2026-05-04 18:54 55.41562 13.48497 9358 ft 266 kts 289°
2026-05-04 18:55 55.42203 13.45496 9226 ft 265 kts 289°
2026-05-04 18:55 55.43491 13.39419 8944 ft 264 kts 289°
2026-05-04 18:55 55.44129 13.36403 8712 ft 262 kts 289°
2026-05-04 18:56 55.44762 13.33415 8472 ft 258 kts 289°
2026-05-04 18:56 55.45385 13.30483 8230 ft 253 kts 289°
2026-05-04 18:56 55.45834 13.27532 8000 ft 247 kts 276°
2026-05-04 18:56 55.45837 13.24560 7880 ft 238 kts 264°
2026-05-04 18:57 55.45656 13.21753 7783 ft 229 kts 264°
2026-05-04 18:57 55.45487 13.19017 7680 ft 220 kts 264°
2026-05-04 18:57 55.45326 13.16332 7584 ft 228 kts 264°
2026-05-04 18:57 55.45155 13.13502 7475 ft 234 kts 264°
2026-05-04 18:58 55.44981 13.10646 7371 ft 235 kts 264°
2026-05-04 18:58 55.44806 13.07796 7258 ft 234 kts 264°
2026-05-04 18:58 55.44630 13.04947 7154 ft 234 kts 264°
2026-05-04 18:58 55.44454 13.02102 7045 ft 234 kts 264°
2026-05-04 18:59 55.44278 12.99258 6935 ft 233 kts 264°
2026-05-04 18:59 55.44100 12.96422 6827 ft 233 kts 264°
2026-05-04 18:59 55.44072 12.93620 6721 ft 232 kts 276°
2026-05-04 18:59 55.44449 12.90856 6594 ft 233 kts 290°
2026-05-04 19:00 55.45073 12.88215 6490 ft 233 kts 291°
2026-05-04 19:00 55.45694 12.85573 6377 ft 234 kts 291°
2026-05-04 19:00 55.46390 12.82987 6242 ft 235 kts 303°
2026-05-04 19:00 55.47595 12.81035 6130 ft 241 kts 328°
2026-05-04 19:01 55.49216 12.80220 6013 ft 248 kts 355°
2026-05-04 19:01 55.50929 12.80757 5883 ft 254 kts 14°
2026-05-04 19:01 55.52609 12.81725 5753 ft 254 kts 14°
2026-05-04 19:01 55.54288 12.82706 5625 ft 254 kts 14°
2026-05-04 19:02 55.55933 12.83677 5517 ft 251 kts 16°
2026-05-04 19:02 55.57539 12.84757 5403 ft 244 kts 18°
2026-05-04 19:02 55.59104 12.85891 5287 ft 242 kts 19°
2026-05-04 19:02 55.60659 12.87038 5168 ft 242 kts 19°
2026-05-04 19:03 55.62202 12.88232 5064 ft 243 kts 25°
2026-05-04 19:03 55.63606 12.89923 4913 ft 246 kts 38°
2026-05-04 19:03 55.64880 12.91949 4710 ft 245 kts 38°
2026-05-04 19:03 55.66151 12.93952 4511 ft 244 kts 38°
2026-05-04 19:04 55.67523 12.95632 4326 ft 236 kts 17°
2026-05-04 19:04 55.69072 12.96062 4144 ft 216 kts 350°
2026-05-04 19:04 55.70453 12.95348 4046 ft 204 kts 327°
2026-05-04 19:04 55.71528 12.93796 4027 ft 199 kts 311°
2026-05-04 19:05 55.72630 12.92377 4016 ft 203 kts 339°
2026-05-04 19:05 55.74052 12.92117 4037 ft 208 kts 353°
2026-05-04 19:05 55.75392 12.91403 4028 ft 200 kts 323°
2026-05-04 19:05 55.76490 12.89891 4027 ft 200 kts 316°
2026-05-04 19:06 55.77532 12.88258 4029 ft 200 kts 315°
2026-05-04 19:06 55.78565 12.86610 4027 ft 200 kts 315°
2026-05-04 19:06 55.79596 12.84958 4025 ft 199 kts 315°
2026-05-04 19:06 55.80627 12.83305 4025 ft 200 kts 315°
2026-05-04 19:07 55.81658 12.81653 4024 ft 200 kts 315°
2026-05-04 19:07 55.82691 12.79999 4024 ft 200 kts 315°
2026-05-04 19:07 55.83725 12.78343 4023 ft 200 kts 315°
2026-05-04 19:07 55.84745 12.76708 4023 ft 200 kts 315°
2026-05-04 19:08 55.85778 12.75051 4022 ft 200 kts 315°
2026-05-04 19:08 55.86812 12.73393 4022 ft 200 kts 315°
2026-05-04 19:08 55.87844 12.71736 4021 ft 200 kts 315°
2026-05-04 19:08 55.88876 12.70078 4020 ft 200 kts 315°
2026-05-04 19:09 55.89909 12.68417 4019 ft 200 kts 315°
2026-05-04 19:09 55.90942 12.66756 4018 ft 200 kts 315°
2026-05-04 19:09 55.91882 12.64956 4010 ft 198 kts 296°
2026-05-04 19:09 55.92130 12.62501 4025 ft 213 kts 262°
2026-05-04 19:10 55.91649 12.59996 4017 ft 220 kts 248°
2026-05-04 19:10 55.90977 12.57536 4017 ft 221 kts 245°
2026-05-04 19:10 55.90284 12.55088 4018 ft 221 kts 245°
2026-05-04 19:10 55.89592 12.52649 4018 ft 221 kts 245°
2026-05-04 19:11 55.88888 12.50212 4019 ft 221 kts 242°
2026-05-04 19:11 55.87821 12.48255 4019 ft 227 kts 211°
2026-05-04 19:11 55.86280 12.47532 4026 ft 233 kts 189°
2026-05-04 19:11 55.84654 12.47360 4024 ft 234 kts 186°
2026-05-04 19:12 55.83023 12.47254 4025 ft 235 kts 185°
2026-05-04 19:12 55.79788 12.47526 4020 ft 241 kts 160°
2026-05-04 19:12 55.78446 12.49316 4031 ft 246 kts 131°
2026-05-04 19:13 55.77416 12.51754 4030 ft 247 kts 126°
2026-05-04 19:13 55.76444 12.54265 4031 ft 247 kts 125°
2026-05-04 19:13 55.75479 12.56788 4032 ft 247 kts 125°
2026-05-04 19:13 55.74517 12.59300 4030 ft 243 kts 125°
2026-05-04 19:14 55.73747 12.61852 4022 ft 230 kts 102°
2026-05-04 19:14 55.73793 12.64751 4042 ft 242 kts 69°
2026-05-04 19:14 55.74665 12.67205 4038 ft 239 kts 41°
2026-05-04 19:14 55.75911 12.69167 4032 ft 240 kts 36°
2026-05-04 19:15 55.77203 12.71043 4029 ft 239 kts 35°
2026-05-04 19:15 55.78498 12.72902 4028 ft 240 kts 35°
2026-05-04 19:15 55.79801 12.74764 3762 ft 243 kts 36°
2026-05-04 19:15 55.81131 12.76653 3332 ft 243 kts 36°
2026-05-04 19:16 55.82435 12.78493 3028 ft 235 kts 35°
2026-05-04 19:16 55.83686 12.80268 3017 ft 220 kts 35°
2026-05-04 19:16 55.84819 12.81899 3010 ft 201 kts 36°
2026-05-04 19:16 55.85881 12.83431 3059 ft 194 kts 35°
2026-05-04 19:17 55.86902 12.84915 3021 ft 191 kts 37°
2026-05-04 19:17 55.87657 12.86847 2997 ft 196 kts 72°
2026-05-04 19:17 55.87756 12.89269 3004 ft 200 kts 101°
2026-05-04 19:17 55.87056 12.91363 3016 ft 200 kts 141°
2026-05-04 19:18 55.85799 12.92256 3019 ft 196 kts 177°
2026-05-04 19:18 55.84443 12.92309 3030 ft 195 kts 184°
2026-05-04 19:18 55.83092 12.92232 3025 ft 194 kts 185°
2026-05-04 19:18 55.81745 12.92137 3020 ft 193 kts 186°
2026-05-04 19:19 55.80400 12.92048 3013 ft 194 kts 185°
2026-05-04 19:19 55.79067 12.91808 3013 ft 191 kts 199°
2026-05-04 19:19 55.77916 12.90734 3020 ft 186 kts 223°
2026-05-04 19:19 55.76961 12.89242 3023 ft 185 kts 225°
2026-05-04 19:20 55.75999 12.87732 3027 ft 185 kts 225°
2026-05-04 19:20 55.75032 12.86218 3031 ft 185 kts 225°
2026-05-04 19:20 55.74069 12.84711 2994 ft 185 kts 225°
2026-05-04 19:20 55.73103 12.83202 2813 ft 185 kts 225°
2026-05-04 19:21 55.72142 12.81701 2585 ft 183 kts 225°
2026-05-04 19:21 55.71185 12.80208 2343 ft 182 kts 226°
2026-05-04 19:21 55.70236 12.78727 2105 ft 181 kts 226°
2026-05-04 19:21 55.69293 12.77258 1850 ft 180 kts 225°
2026-05-04 19:22 55.68353 12.75794 1602 ft 179 kts 225°
2026-05-04 19:22 55.67433 12.74362 1359 ft 178 kts 225°
2026-05-04 19:22 55.66496 12.72903 1117 ft 179 kts 225°
2026-05-04 19:22 55.65570 12.71466 862 ft 174 kts 223°
2026-05-04 19:23 55.64694 12.70106 642 ft 158 kts 224°
2026-05-04 19:23 55.63903 12.68879 419 ft 146 kts 224°
2026-05-04 19:23 55.63152 12.67714 226 ft 142 kts 224°
2026-05-04 19:23 55.62410 12.66561 41 ft 142 kts 224°
2026-05-04 19:24 55.61738 12.65507 25 ft 107 kts 221°
2026-05-04 19:24 55.61360 12.64928 28 ft 39 kts 224°
2026-05-04 19:24 55.61239 12.64522 24 ft 39 kts 252°
2026-05-04 19:24 55.61194 12.64297 24 ft 17 kts 255°
2026-05-04 19:25 55.61189 12.64220 24 ft 1 kts 272°
2026-05-04 19:25 55.61191 12.64199 24 ft 3 kts 283°
2026-05-04 19:25 55.61205 12.64149 24 ft 5 kts 307°
2026-05-04 19:25 55.61205 12.64148 24 ft 0 kts 308°
2026-05-04 19:26 55.61235 12.64115 24 ft 11 kts 342°
2026-05-04 19:26 55.61316 12.64152 25 ft 14 kts 29°
2026-05-04 19:26 55.61392 12.64237 24 ft 14 kts 33°
2026-05-04 19:26 55.61484 12.64345 24 ft 17 kts 33°
2026-05-04 19:27 55.61576 12.64450 25 ft 12 kts 33°
2026-05-04 19:27 55.61656 12.64541 26 ft 15 kts 32°
2026-05-04 19:27 55.61756 12.64653 26 ft 19 kts 32°
2026-05-04 19:27 55.61866 12.64782 24 ft 17 kts 34°
2026-05-04 19:28 55.61968 12.64899 24 ft 17 kts 33°
2026-05-04 19:28 55.62063 12.65009 24 ft 12 kts 33°
2026-05-04 19:28 55.62074 12.65021 24 ft 1 kts 33°
2026-05-04 19:28 55.62091 12.65041 26 ft 4 kts 33°
2026-05-04 19:29 55.62107 12.65061 24 ft 1 kts 33°
2026-05-04 19:29 55.62112 12.65066 24 ft 0 kts 33°
2026-05-04 19:29 55.62118 12.65074 26 ft 3 kts 33°
2026-05-04 19:30 55.62119 12.65075 26 ft 0 kts 33°
2026-05-04 19:30 55.62125 12.65082 25 ft 3 kts 33°
2026-05-04 19:31 55.62156 12.65118 25 ft 8 kts 34°
2026-05-04 19:31 55.62221 12.65168 24 ft 13 kts 353°
2026-05-04 19:31 55.62291 12.65040 26 ft 17 kts 304°
2026-05-04 19:31 55.62358 12.64856 24 ft 19 kts 304°
2026-05-04 19:32 55.62427 12.64671 25 ft 20 kts 302°
2026-05-04 19:32 55.62501 12.64471 24 ft 19 kts 303°
2026-05-04 19:32 55.62564 12.64299 24 ft 16 kts 308°
2026-05-04 19:32 55.62645 12.64296 25 ft 14 kts 25°
2026-05-04 19:33 55.62710 12.64345 26 ft 1 kts 28°
2026-05-04 19:33 55.62730 12.64362 24 ft 6 kts 25°
2026-05-04 19:33 55.62758 12.64394 25 ft 3 kts 81°
2026-05-04 19:33 55.62757 12.64455 24 ft 5 kts 99°
2026-05-04 19:34 55.62755 12.64476 24 ft 0 kts 100°